When you browse on this site, cookies collect data to enhance your experience and personalize the content and advertising you see.
Visit our Privacy Policy to learn more. By continuing to use the site, you agree to this use of cookies and data.
  • In Lithuania
  • List of Countries
  • For 7 days
  • Water Temperature
  • Satellite Maps
  • Weather Map
  • Weather Widgets
  • user-avatar
    Login

    Hourly Weather Liverpool

    Today, 17 January, Thursday

    Time Temperature Precipitation Wind Pressure Humidity
    00:00 -3°C° 0 mm 6 mps 756 mmHg 82%
    01:00 -3°C° 0 mm 6 mps 757 mmHg 80%
    02:00 -4°C° 0 mm 6 mps 757 mmHg 78%
    03:00 -6°C° 0 mm 7 mps 758 mmHg 73%
    04:00 -8°C° 0 mm 7 mps 759 mmHg 68%
    05:00 -10°C° 0 mm 8 mps 760 mmHg 62%
    06:00 -11°C° 0 mm 7 mps 761 mmHg 62%
    07:00 -12°C° 0 mm 7 mps 762 mmHg 63%
    08:00 -13°C° 0 mm 7 mps 763 mmHg 63%
    09:00 -13°C° 0 mm 7 mps 764 mmHg 58%
    10:00 -12°C° 0 mm 6 mps 765 mmHg 53%
    11:00 -12°C° 0 mm 6 mps 766 mmHg 49%
    12:00 -11°C° 0 mm 6 mps 766 mmHg 46%
    13:00 -11°C° 0 mm 5 mps 766 mmHg 44%
    14:00 -10°C° 0 mm 5 mps 766 mmHg 41%
    15:00 -11°C° 0 mm 5 mps 766 mmHg 44%
    16:00 -10°C° 0 mm 4 mps 767 mmHg 47%
    17:00 -11°C° 0 mm 4 mps 767 mmHg 49%
    18:00 -11°C° 0 mm 4 mps 768 mmHg 52%
    19:00 -11°C° 0 mm 4 mps 768 mmHg 54%
    20:00 -12°C° 0 mm 3 mps 768 mmHg 57%
    21:00 -12°C° 0 mm 3 mps 768 mmHg 58%
    22:00 -10°C° 0 mm 2 mps 768 mmHg 58%
    23:00 -10°C° 0 mm 2 mps 769 mmHg 59%

    Tomorrow, 18 January, Friday

    Time Temperature Precipitation Wind Pressure Humidity
    00:00 -9°C° 0 mm 1 mps 768 mmHg 58%
    01:00 -9°C° 0 mm 1 mps 768 mmHg 58%
    02:00 -9°C° 0 mm 0 mps 768 mmHg 57%
    03:00 -9°C° 0 mm 0 mps 768 mmHg 57%
    04:00 -8°C° 0 mm 1 mps 767 mmHg 57%
    05:00 -8°C° 0 mm 1 mps 767 mmHg 57%
    06:00 -8°C° 0 mm 1 mps 767 mmHg 58%
    07:00 -8°C° 0 mm 2 mps 767 mmHg 58%
    08:00 -8°C° 0 mm 3 mps 767 mmHg 58%
    09:00 -7°C° 0 mm 3 mps 766 mmHg 57%
    10:00 -5°C° 0 mm 4 mps 766 mmHg 57%
    11:00 -5°C° 0 mm 5 mps 766 mmHg 56%
    12:00 -4°C° 0 mm 5 mps 765 mmHg 58%
    13:00 -3°C° 0 mm 6 mps 764 mmHg 60%
    14:00 -2°C° 0 mm 6 mps 763 mmHg 62%
    15:00 -2°C° 0 mm 6 mps 762 mmHg 70%
    16:00 -2°C° 0 mm 6 mps 761 mmHg 77%
    17:00 -2°C° 0 mm 6 mps 760 mmHg 84%
    18:00 -1°C° 0.2 mm 7 mps 760 mmHg 86%
    19:00 -1°C° 0.2 mm 7 mps 759 mmHg 88%
    20:00 0°C° 0.2 mm 7 mps 759 mmHg 90%
    21:00 0°C° 0.7 mm 7 mps 758 mmHg 92%
    22:00 +2°C° 0.7 mm 7 mps 758 mmHg 93%
    23:00 +2°C° 0.7 mm 6 mps 757 mmHg 95%

    Day after tomorrow, 19 January, Saturday

    Time Temperature Precipitation Wind Pressure Humidity
    00:00 +2°C° 0.2 mm 6 mps 757 mmHg 95%
    01:00 +1°C° 0.2 mm 5 mps 757 mmHg 95%
    02:00 +1°C° 0.2 mm 5 mps 757 mmHg 96%
    03:00 -1°C° 0 mm 6 mps 757 mmHg 89%
    04:00 -3°C° 0 mm 7 mps 758 mmHg 82%
    05:00 -4°C° 0 mm 7 mps 759 mmHg 75%
    06:00 -7°C° 0 mm 7 mps 760 mmHg 72%
    07:00 -9°C° 0 mm 7 mps 762 mmHg 70%
    08:00 -12°C° 0 mm 7 mps 763 mmHg 68%
    09:00 -13°C° 0 mm 7 mps 764 mmHg 63%
    10:00 -14°C° 0 mm 6 mps 765 mmHg 58%
    11:00 -14°C° 0 mm 6 mps 766 mmHg 54%
    12:00 -14°C° 0 mm 6 mps 766 mmHg 52%
    13:00 -13°C° 0 mm 5 mps 766 mmHg 50%
    14:00 -12°C° 0 mm 5 mps 766 mmHg 48%
    15:00 -13°C° 0 mm 5 mps 767 mmHg 50%
    16:00 -12°C° 0 mm 4 mps 767 mmHg 51%
    17:00 -12°C° 0 mm 4 mps 767 mmHg 53%
    18:00 -14°C° 0 mm 4 mps 768 mmHg 54%
    19:00 -14°C° 0 mm 4 mps 768 mmHg 55%
    20:00 -13°C° 0 mm 3 mps 769 mmHg 56%
    21:00 -13°C° 0 mm 3 mps 769 mmHg 57%
    22:00 -13°C° 0 mm 3 mps 769 mmHg 58%
    23:00 -12°C° 0 mm 3 mps 769 mmHg 59%

    20 January, Sunday

    Time Temperature Precipitation Wind Pressure Humidity
    00:00 -12°C° 0 mm 3 mps 768 mmHg 62%
    01:00 -12°C° 0 mm 4 mps 768 mmHg 64%
    02:00 -11°C° 0 mm 4 mps 767 mmHg 67%
    03:00 -11°C° 0 mm 5 mps 767 mmHg 71%
    04:00 -11°C° 0 mm 6 mps 766 mmHg 76%
    05:00 -10°C° 0 mm 6 mps 765 mmHg 80%
    06:00 -9°C° 0.3 mm 7 mps 764 mmHg 83%
    07:00 -10°C° 0.3 mm 8 mps 763 mmHg 85%
    08:00 -9°C° 0.3 mm 9 mps 762 mmHg 88%
    09:00 -8°C° 0.7 mm 10 mps 760 mmHg 89%
    10:00 -6°C° 0.7 mm 11 mps 758 mmHg 90%
    11:00 -5°C° 0.7 mm 12 mps 756 mmHg 92%
    12:00 -2°C° 1.3 mm 12 mps 754 mmHg 93%
    13:00 0°C° 1.3 mm 12 mps 752 mmHg 94%
    14:00 +3°C° 1.3 mm 12 mps 750 mmHg 95%
    15:00 +4°C° 2.8 mm 11 mps 748 mmHg 95%
    16:00 +7°C° 2.8 mm 11 mps 746 mmHg 95%
    17:00 +8°C° 2.8 mm 11 mps 744 mmHg 95%
    18:00 +9°C° 2.6 mm 12 mps 743 mmHg 93%
    19:00 +9°C° 2.6 mm 14 mps 742 mmHg 91%
    20:00 +10°C° 2.6 mm 15 mps 741 mmHg 88%
    21:00 +10°C° 5.7 mm 15 mps 740 mmHg 90%
    22:00 +10°C° 5.7 mm 14 mps 739 mmHg 91%
    23:00 +10°C° 5.7 mm 14 mps 737 mmHg 92%

    21 January, Monday

    Time Temperature Precipitation Wind Pressure Humidity
    00:00 +9°C° 2.4 mm 12 mps 737 mmHg 93%
    01:00 +8°C° 2.4 mm 10 mps 737 mmHg 94%
    02:00 +6°C° 2.4 mm 8 mps 737 mmHg 96%
    03:00 +4°C° 0 mm 8 mps 738 mmHg 94%
    04:00 +2°C° 0 mm 7 mps 739 mmHg 91%
    05:00 -1°C° 0 mm 7 mps 740 mmHg 89%
    06:00 -2°C° 0 mm 7 mps 741 mmHg 88%
    07:00 -3°C° 0 mm 7 mps 741 mmHg 88%
    08:00 -4°C° 0 mm 7 mps 742 mmHg 87%
    09:00 -4°C° 0 mm 7 mps 743 mmHg 84%
    10:00 -6°C° 0 mm 7 mps 743 mmHg 81%
    11:00 -5°C° 0 mm 6 mps 744 mmHg 78%
    12:00 -6°C° 0.1 mm 7 mps 744 mmHg 75%
    13:00 -7°C° 0.1 mm 7 mps 744 mmHg 73%
    14:00 -7°C° 0.1 mm 7 mps 744 mmHg 71%
    15:00 -8°C° 0.1 mm 7 mps 745 mmHg 71%
    16:00 -9°C° 0.1 mm 7 mps 746 mmHg 72%
    17:00 -11°C° 0.1 mm 8 mps 747 mmHg 72%
    18:00 -12°C° 0.1 mm 7 mps 747 mmHg 73%
    19:00 -12°C° 0.1 mm 7 mps 748 mmHg 74%
    20:00 -13°C° 0.1 mm 7 mps 749 mmHg 75%
    21:00 -13°C° 0.1 mm 7 mps 750 mmHg 75%
    22:00 -15°C° 0.1 mm 8 mps 750 mmHg 75%
    23:00 -16°C° 0.1 mm 8 mps 751 mmHg 75%

    22 January, Tuesday

    Time Temperature Precipitation Wind Pressure Humidity
    00:00 -16°C° 0.1 mm 8 mps 751 mmHg 75%
    01:00 -16°C° 0.1 mm 8 mps 752 mmHg 75%
    02:00 -17°C° 0.1 mm 8 mps 753 mmHg 75%
    03:00 -17°C° 0.1 mm 9 mps 753 mmHg 75%
    04:00 -17°C° 0.1 mm 9 mps 754 mmHg 74%
    05:00 -17°C° 0.1 mm 9 mps 754 mmHg 73%
    06:00 -17°C° 0.1 mm 9 mps 755 mmHg 73%
    07:00 -17°C° 0.1 mm 9 mps 756 mmHg 73%
    08:00 -17°C° 0.1 mm 9 mps 757 mmHg 73%
    09:00 -17°C° 0 mm 9 mps 758 mmHg 71%
    10:00 -16°C° 0 mm 9 mps 759 mmHg 68%
    11:00 -16°C° 0 mm 9 mps 759 mmHg 66%
    12:00 -15°C° 0 mm 9 mps 760 mmHg 66%
    13:00 -13°C° 0 mm 8 mps 760 mmHg 65%
    14:00 -13°C° 0 mm 8 mps 760 mmHg 64%
    15:00 -13°C° 0 mm 8 mps 761 mmHg 67%
    16:00 -13°C° 0 mm 7 mps 761 mmHg 69%
    17:00 -12°C° 0 mm 7 mps 762 mmHg 71%
    18:00 -11°C° 0 mm 6 mps 763 mmHg 72%
    19:00 -11°C° 0 mm 6 mps 763 mmHg 73%
    20:00 -11°C° 0 mm 5 mps 764 mmHg 74%
    21:00 -11°C° 0 mm 5 mps 764 mmHg 75%
    22:00 -10°C° 0 mm 4 mps 764 mmHg 75%
    23:00 -9°C° 0 mm 3 mps 764 mmHg 76%
    Show more